Regional Weather Roundup
Issued by NWS

Home | Current Version | Previous Version | Graphics & Text | Print | Product List | Glossary Off
Versions: 1 2 3 4 5 6 7 8 9 10 11 12 13 14 15 16 17 18 19 20 21 22 23 24 25 26 27 28 29 30 31 32 33 34 35 36 37 38 39 40 41 42 43 44 45 46 47 48 49 50

000
ASUS43 KTOP 210759
RWRKS

WEATHER ROUNDUP FOR KANSAS
NATIONAL WEATHER SERVICE GOODLAND KS
300 AM CDT MON AUG 21 2017

NOTE:  "FAIR" INDICATES FEW OR NO CLOUDS BELOW 12,000 FEET WITH NO
SIGNIFICANT WEATHER AND/OR OBSTRUCTIONS TO VISIBILITY.

KSZ001>006-013>018-027>032-041>047-210900-
NORTHWEST KANSAS

CITY           SKY/WX    TMP DP  RH WIND       PRES   REMARKS
GOODLAND       PTCLDY    67  63  87 S10       30.00F
HAYS           PTCLDY    78  66  66 S15       29.98S
HILL CITY      PTCLDY    79  65  62 S15G21    29.97F
RUSSELL        PTCLDY    78  69  73 S13       29.97S
$$

KSZ061>065-074>080-084>089-210900-
SOUTHWEST KANSAS

CITY           SKY/WX    TMP DP  RH WIND       PRES   REMARKS
DODGE CITY     CLOUDY    76  65  68 S17       30.05F
ELKHART          N/A     69  61  76 SW10        N/A
GARDEN CITY    MOCLDY    71  64  78 SE9       30.04S
GREAT BEND     PTCLDY    75  64  68 S13       30.01S
LIBERAL        CLOUDY    74  63  68 SW15      30.08R
$$

KSZ066>073-081>083-090>101-210900-
SOUTHEAST KANSAS

CITY           SKY/WX    TMP DP  RH WIND       PRES   REMARKS
CHANUTE        PTCLDY    74  72  93 SE7       30.02F
COFFEYVILLE    PTCLDY    78  73  84 S7        30.02F
HUTCHINSON     CLOUDY    76  69  79 S8        30.01F
MEDICINE LODGE   N/A     74  67  78 W17G26    30.04S
NEWTON         CLOUDY    78  72  81 SW10      30.02F
PARSONS        MOCLDY    77  72  84 S5        30.03F
WICHITA INTL   CLOUDY    79  73  82 S8        30.00F
WICHITA JABRA  CLOUDY    79  74  84 S12       30.00F
WINFIELD       MOCLDY    78  73  84 S8        30.03F
$$

KSZ007>012-019>026-033>040-048>060-102>105-210900-
NORTHEAST KANSAS

CITY           SKY/WX    TMP DP  RH WIND       PRES   REMARKS
CONCORDIA      CLEAR     79  68  69 S18G25    29.94F
EMPORIA        PTCLDY    76  72  87 S12       30.00F
LAWRENCE       CLEAR     76  71  85 SE8       29.99S
MANHATTAN      CLEAR     79  72  79 SW9       29.95F
OLATHE IND     CLEAR     75  67  76 S12       30.00F
OLATHE EXE     PTCLDY    74  68  81 S9        30.00F
SALINA         PTCLDY    82  70  66 S13G21    29.96F
TOPEKA BILLARD CLEAR     77  73  87 S7        29.97F
TOPEKA FORBES  CLEAR     77  73  87 S8        29.98F
$$




USA.gov is the U.S. government's official web portal to all federal, state and local government web resources and services.